Date String (YYYY-MM-DD hh:mm:ss) UTC,Instrument flags,Ambient pressure (hPa),Sample flow (lpm),Bypass flow (lpm),Sample temperature (°C),Ambient temperature (°C),ASC tube jacket temperature (°C),LED temperature (°C),Box temperature (°C),Sample RH (%),Span deviation,Mass concentration (μg/m³),Mass concentration (μg/m³),Mass concentration (μg/m³)
DateTimeUTC,F1_M11,P_M11,Q1_M11,Q2_M11,T1_M11,T2_M11,T3_M11,T4_M11,T5_M11,U1_M11,ZSPAN_M11,X0_M11,X2_M11,X1_M11
2022-10-27 19:00:00,,0825.6,5.02,0.00,22.9,21.1,00.0,31.8,24.7,21.6,0000.0,0003.25,0002.32,0002.07
2022-10-27 19:01:00,,0825.6,5.01,0.00,22.9,21.1,00.0,31.8,24.7,21.7,0000.0,0003.04,0002.30,0002.08
2022-10-27 19:02:00,,0825.6,4.99,0.00,22.9,21.1,00.0,31.8,24.7,21.7,0000.0,0002.94,0002.29,0002.08
2022-10-27 19:03:00,,0826.0,4.99,0.00,22.9,21.1,00.0,31.8,24.7,21.5,0000.0,0002.89,0002.28,0002.10
2022-10-27 19:04:00,,0825.6,5.00,0.00,22.9,21.1,00.0,31.7,24.7,21.6,0000.0,0002.93,0002.31,0002.11
2022-10-27 19:05:00,,0825.6,5.00,0.00,22.9,21.1,00.0,31.7,24.7,22.2,0000.0,0003.05,0002.35,0002.12
2022-10-27 19:06:00,,0825.6,5.02,0.00,22.9,21.1,00.0,31.7,24.7,22.3,0000.0,0003.07,0002.34,0002.11
2022-10-27 19:07:00,,0825.6,5.00,0.00,22.9,21.1,00.0,31.7,24.7,22.2,0000.0,0003.16,0002.37,0002.10
2022-10-27 19:08:00,,0825.5,4.99,0.00,22.9,21.1,00.0,31.7,24.7,22.1,0000.0,0003.15,0002.37,0002.11
2022-10-27 19:09:00,,0825.6,5.00,0.00,22.9,21.1,00.0,31.7,24.6,22.4,0000.0,0003.16,0002.37,0002.10
2022-10-27 19:10:00,,0825.6,4.99,0.00,22.8,21.1,00.0,31.7,24.6,22.2,0000.0,0003.19,0002.39,0002.10
2022-10-27 19:11:00,,0825.6,5.01,0.00,22.8,21.1,00.0,31.7,24.6,22.2,0000.0,0003.27,0002.40,0002.11
2022-10-27 19:12:00,,0825.6,5.00,0.00,22.8,21.1,00.0,31.7,24.6,22.3,0000.0,0003.39,0002.41,0002.12
2022-10-27 19:13:00,,0825.6,5.00,0.00,22.8,21.1,00.0,31.7,24.6,22.9,0000.0,0003.54,0002.43,0002.12
2022-10-27 19:14:00,,0825.6,4.99,0.00,22.8,21.0,00.0,31.7,24.6,22.5,0000.0,0003.62,0002.44,0002.11
2022-10-27 19:15:00,,0825.6,4.99,0.00,22.8,21.1,00.0,31.7,24.6,22.6,0000.0,0003.57,0002.42,0002.10
2022-10-27 19:16:00,,0825.6,5.00,0.00,22.8,21.1,00.0,31.7,24.6,22.5,0000.0,0003.47,0002.39,0002.10
2022-10-27 19:17:00,,0825.6,5.01,0.00,22.8,21.1,00.0,31.7,24.6,22.8,0000.0,0003.43,0002.39,0002.12
2022-10-27 19:18:00,,0825.6,5.00,0.00,22.8,21.1,00.0,31.7,24.6,22.5,0000.0,0003.34,0002.36,0002.12
2022-10-27 19:19:00,,0825.6,5.00,0.00,22.8,21.0,00.0,31.6,24.6,22.6,0000.0,0003.42,0002.38,0002.13
2022-10-27 19:20:00,,0825.6,5.01,0.00,22.8,21.0,00.0,31.6,24.6,22.3,0000.0,0003.49,0002.40,0002.14
2022-10-27 19:21:00,,0825.6,5.00,0.00,22.8,21.1,00.0,31.6,24.6,22.3,0000.0,0003.51,0002.41,0002.15
2022-10-27 19:22:00,,0825.6,5.00,0.00,22.8,21.1,00.0,31.6,24.6,22.2,0000.0,0003.47,0002.42,0002.14
2022-10-27 19:23:00,,0825.6,5.00,0.00,22.8,21.1,00.0,31.6,24.6,22.4,0000.0,0003.32,0002.39,0002.13
2022-10-27 19:24:00,,0825.6,5.00,0.00,22.8,21.1,00.0,31.6,24.6,22.7,0000.0,0003.25,0002.40,0002.14
2022-10-27 19:25:00,,0825.6,4.99,0.00,22.8,21.1,00.0,31.6,24.6,22.8,0000.0,0003.21,0002.40,0002.13
2022-10-27 19:26:00,,0825.6,5.00,0.00,22.8,21.1,00.0,31.6,24.6,22.4,0000.0,0003.17,0002.39,0002.13
2022-10-27 19:27:00,,0825.6,5.00,0.00,22.8,21.1,00.0,31.6,24.6,22.1,0000.0,0003.13,0002.36,0002.11
2022-10-27 19:28:00,,0825.6,5.00,0.00,22.8,21.1,00.0,31.6,24.6,22.2,0000.0,0003.15,0002.35,0002.09
2022-10-27 19:29:00,,0825.6,5.00,0.00,22.8,21.1,00.0,31.6,24.6,22.4,0000.0,0003.21,0002.36,0002.07
2022-10-27 19:30:00,,0825.6,5.00,0.00,22.8,21.1,00.0,31.6,24.6,22.3,0000.0,0003.39,0002.33,0002.06
2022-10-27 19:31:00,,0825.6,5.00,0.00,22.8,21.1,00.0,31.6,24.6,22.4,0000.0,0003.35,0002.30,0002.05
2022-10-27 19:32:00,,0825.6,5.00,0.00,22.8,21.1,00.0,31.6,24.6,22.9,0000.0,0003.34,0002.28,0002.03
2022-10-27 19:33:00,,0825.6,5.00,0.00,22.8,21.2,00.0,31.6,24.6,22.9,0000.0,0003.37,0002.27,0002.01
2022-10-27 19:34:00,,0825.6,5.00,0.00,22.8,21.1,00.0,31.6,24.6,22.3,0000.0,0003.47,0002.31,0002.02
2022-10-27 19:35:00,,0825.6,5.00,0.00,22.8,21.2,00.0,31.6,24.6,22.5,0000.0,0003.42,0002.29,0002.00
2022-10-27 19:36:00,,0825.6,5.00,0.00,22.8,21.2,00.0,31.6,24.6,22.7,0000.0,0003.36,0002.26,0001.99
2022-10-27 19:37:00,,0825.6,4.99,0.00,22.8,21.2,00.0,31.6,24.6,23.3,0000.0,0003.51,0002.29,0001.98
2022-10-27 19:38:00,,0825.6,5.02,0.00,22.8,21.2,00.0,31.6,24.6,22.7,0000.0,0003.71,0002.30,0001.98
2022-10-27 19:39:00,,0825.6,5.00,0.00,22.7,21.2,00.0,31.6,24.6,22.0,0000.0,0003.82,0002.33,0001.98
2022-10-27 19:40:00,,0825.6,4.99,0.00,22.8,21.2,00.0,31.6,24.6,22.6,0000.0,0003.81,0002.34,0001.98
2022-10-27 19:41:00,,0825.6,5.00,0.00,22.8,21.3,00.0,31.6,24.6,22.3,0000.0,0003.58,0002.37,0001.98
2022-10-27 19:42:00,,0825.6,4.99,0.00,22.8,21.3,00.0,31.6,24.6,22.7,0000.0,0004.09,0002.36,0001.98
2022-10-27 19:43:00,,0825.6,5.00,0.00,22.8,21.4,00.0,31.6,24.6,22.4,0000.0,0004.13,0002.34,0001.98
2022-10-27 19:44:00,,0825.6,4.99,0.00,22.8,21.3,00.0,31.6,24.6,22.7,0000.0,0004.03,0002.31,0001.97
2022-10-27 19:45:00,,0825.6,5.00,0.00,22.8,21.2,00.0,31.6,24.6,22.9,0000.0,0004.01,0002.31,0001.96
2022-10-27 19:46:00,,0825.6,5.01,0.00,22.8,21.2,00.0,31.6,24.6,22.5,0000.0,0004.10,0002.34,0001.96
2022-10-27 19:47:00,,0825.6,5.00,0.00,22.7,21.2,00.0,31.6,24.6,22.9,0000.0,0004.16,0002.35,0001.97
2022-10-27 19:48:00,,0825.6,5.00,0.00,22.7,21.1,00.0,31.6,24.6,22.5,0000.0,0004.13,0002.37,0001.99
2022-10-27 19:49:00,,0825.6,4.99,0.00,22.7,21.2,00.0,31.6,24.6,22.4,0000.0,0003.99,0002.37,0001.99
2022-10-27 19:50:00,,0825.6,5.00,0.00,22.7,21.2,00.0,31.6,24.5,22.7,0000.0,0003.98,0002.36,0002.00
2022-10-27 19:51:00,,0825.6,5.00,0.00,22.7,21.3,00.0,31.6,24.5,22.7,0000.0,0004.65,0002.39,0002.01
2022-10-27 19:52:00,,0825.6,5.00,0.00,22.7,21.3,00.0,31.6,24.6,22.2,0000.0,0005.18,0002.40,0002.02
2022-10-27 19:53:00,,0825.6,4.99,0.00,22.7,21.3,00.0,31.6,24.5,22.1,0000.0,0004.80,0002.43,0002.02
2022-10-27 19:54:00,,0825.5,5.01,0.00,22.7,21.3,00.0,31.6,24.6,22.7,0000.0,0004.62,0002.44,0002.01
2022-10-27 19:55:00,,0825.6,5.00,0.00,22.8,21.4,00.0,31.6,24.6,22.5,0000.0,0004.63,0002.44,0002.01
2022-10-27 19:56:00,,0825.5,5.01,0.00,22.8,21.5,00.0,31.6,24.7,22.6,0000.0,0004.59,0002.42,0002.01
2022-10-27 19:57:00,,0825.5,4.98,0.00,22.8,21.6,00.0,31.6,24.7,23.1,0000.0,0004.50,0002.38,0002.01
2022-10-27 19:58:00,,0825.5,5.01,0.00,22.8,21.6,00.0,31.6,24.7,22.2,0000.0,0004.42,0002.35,0002.01
2022-10-27 19:59:00,,0825.5,5.01,0.00,22.8,21.5,00.0,31.6,24.7,21.6,0000.0,0004.36,0002.32,0002.00
